Simultaneous Nadir Overpasses (SNOs) Predictions

Prediction of SNOs between METOP-B and TERRA Satellite Orbit:

Table of predicted SNOs for the next 14.0 days since TLE Epoch: 7/29/2023
Index Date (METOP-B) Time (METOP-B) Lat,Lon (METOP-B) SZA (METOP-B ) Date (TERRA) Time (TERRA) Lat,Lon (TERRA) SZA (TERRA ) Distance(km) Time Diff (sec)
1 07/30/2023 15:18:58 -80.77, 161.64 116.45 07/30/2023 15:19:04 -80.77, 161.67 116.45 0.68 6
2 07/30/2023 16:09:35 80.84, -29.78 63.73 07/30/2023 16:08:23 80.85, -29.78 63.71 0.44 72
3 08/02/2023 06:39:57 80.73, 110.70 64.12 08/02/2023 06:40:32 80.73, 110.84 64.14 2.68 35
4 08/02/2023 07:30:34 -80.81, -80.57 115.69 08/02/2023 07:29:52 -80.81, -80.59 115.71 0.46 42
5 08/04/2023 22:00:55 -80.74, 60.63 115.17 08/04/2023 22:02:00 -80.74, 60.52 115.16 2.08 65
6 08/04/2023 22:51:33 80.79,-131.18 64.96 08/04/2023 22:51:20 80.79,-131.27 64.94 1.67 13
7 08/07/2023 14:12:34 -80.74, 177.74 114.43 08/07/2023 14:12:49 -80.75, 177.88 114.41 2.62 15
8 08/07/2023 15:03:10 80.83, -13.39 65.79 08/07/2023 15:02:08 80.83, -13.56 65.75 3.13 62
9 08/10/2023 05:33:33 80.72, 127.09 66.28 08/10/2023 05:34:16 80.72, 127.19 66.30 1.79 43



Historial Predications of SNOs between METOP-B and TERRA
